Oklahoma City Wiley Post, OK

7:55 AM CDT on June 24, 2017 (GMT -0500)
Wiley Post

Weather History for KPWA - February, 2013

Change the Weather History Date:

Tuesday, February 19, 2013

  Actual Average Record
Temperature  
Mean Temperature 40 °F -  
Max Temperature 53 °F 49 °F 75 °F (2011)
Min Temperature 28 °F 26 °F 0 °F (1978)
Degree Days  
Heating Degree Days 24    
Moisture  
Dew Point 20 °F    
Average Humidity 46    
Maximum Humidity 72    
Minimum Humidity 25    
Precipitation  
Precipitation 0.00 in - - ()
Sea Level Pressure  
Sea Level Pressure 30.24 in    
Wind  
Wind Speed 4 mph (East)    
Max Wind Speed 13 mph    
Max Gust Speed -    
Visibility 10 miles    
Events      
Averages and records for this station are not official NWS values.
T = Trace of Precipitation, MM = Missing Value Source: NWS Daily Summary

Daily Weather History Graph

Daily Weather History Graph

Search for Another Location

Airport or City:

Trip Planner

Search our weather history database for the weather conditions in past years. The results will help you decide how hot, cold, wet, or windy it might be!

Date:

Astronomy

Feb. 19, 2013 Rise Set
Actual Time 7:12 AM CST 6:16 PM CST
Civil Twilight 6:46 AM CST 6:42 PM CST
Nautical Twilight 6:16 AM CST 7:12 PM CST
Astronomical Twilight 5:47 AM CST 7:42 PM CST
Moon 12:55 PM CST (2/19) 2:39 AM CST (2/19)
Length of Visible Light 11h 56m
Length of Day
11h 04m
Waxing Gibbous, 67% of the Moon is Illuminated
Feb 19
Waxing Gibbous
Feb 25
Full
Mar 4
Last Quarter
Mar 11
New
Mar 19
First Quarter

Hourly Weather History & Observations

Time (CST) Temp. Windchill Dew Point Humidity Pressure Visibility Wind Dir Wind Speed Gust Speed Precip Events Conditions
12:53 AM 30.9 °F - 21.0 °F 67% 30.19 in 10.0 mi Calm Calm - N/A   Clear
1:53 AM 34.0 °F 28.0 °F 21.0 °F 59% 30.19 in 10.0 mi NE 6.9 mph - N/A   Clear
2:53 AM 35.1 °F 31.0 °F 21.9 °F 59% 30.19 in 10.0 mi ENE 4.6 mph - N/A   Clear
3:53 AM 35.1 °F 32.2 °F 21.0 °F 57% 30.19 in 10.0 mi NE 3.5 mph - N/A   Clear
4:53 AM 28.0 °F - 19.9 °F 72% 30.22 in 10.0 mi Calm Calm - N/A   Clear
5:53 AM 30.0 °F - 21.9 °F 72% 30.24 in 10.0 mi Calm Calm - N/A   Clear
6:53 AM 28.9 °F 22.8 °F 19.9 °F 69% 30.26 in 10.0 mi North 5.8 mph - N/A   Clear
7:53 AM 30.0 °F - 21.0 °F 69% 30.29 in 10.0 mi Calm Calm - N/A   Clear
8:53 AM 37.0 °F 34.5 °F 25.0 °F 62% 30.33 in 10.0 mi North 3.5 mph - N/A   Clear
9:53 AM 41.0 °F - 23.0 °F 49% 30.35 in 10.0 mi Calm Calm - N/A   Clear
10:53 AM 45.0 °F - 18.0 °F 34% 30.35 in 10.0 mi Calm Calm - N/A   Clear
12:53 PM 50.0 °F - 19.0 °F 29% 30.31 in 10.0 mi Variable 6.9 mph - N/A   Clear
1:53 PM 52.0 °F - 19.0 °F 27% 30.28 in 10.0 mi South 6.9 mph - N/A   Clear
2:53 PM 53.1 °F - 19.0 °F 26% 30.25 in 10.0 mi SE 6.9 mph - N/A   Clear
3:53 PM 53.1 °F - 18.0 °F 25% 30.22 in 10.0 mi ESE 8.1 mph - N/A   Clear
4:53 PM 53.1 °F - 19.0 °F 26% 30.20 in 10.0 mi East 12.7 mph - N/A   Clear
6:53 PM 48.0 °F - 19.9 °F 33% 30.21 in 10.0 mi ESE 9.2 mph - N/A   Clear
7:53 PM 46.9 °F - 19.9 °F 34% 30.21 in 10.0 mi ESE 9.2 mph - N/A   Clear
8:53 PM 46.9 °F - 19.9 °F 34% 30.22 in 10.0 mi ESE 10.4 mph - N/A   Clear
9:53 PM 46.0 °F 40.2 °F 19.9 °F 35% 30.22 in 10.0 mi SE 12.7 mph - N/A   Clear
10:53 PM 45.0 °F 38.9 °F 21.0 °F 39% 30.21 in 10.0 mi ESE 12.7 mph - N/A   Overcast
11:53 PM 45.0 °F 39.3 °F 21.0 °F 39% 30.19 in 10.0 mi ESE 11.5 mph - N/A   Overcast